{"data":{"norad_id":54086,"intl_designator":"2022-136AM","name":"STARLINK-5211","alt_names":[],"object_type":"PAYLOAD","status":"ACTIVE","operator":null,"country":"US","launch_date":"2022-10-20","launch_site_code":"AFETR","launch_vehicle":null,"mission":null,"orbit_class":"UNKNOWN","rcs_meters":null,"size_class":null,"mass_kg":null,"dimensions":null,"purposes":["comms"],"wikipedia_slug":null,"has_3d_model":false,"image_url":null,"decayed_at":null,"tle_current":{"epoch":"2026-05-24T19:15:32.267520Z","epoch_age_seconds":85423,"freshness":"FRESH","line1":"1 54086U 22136AM  26144.80245680  .00000396  00000+0  42995-4 0  9997","line2":"2 54086  53.2153 337.5380 0001281  87.9684 272.1455 15.08840212198686","mean_motion":15.08840212,"eccentricity":0.0001281,"inclination_deg":53.2153,"raan_deg":337.538,"arg_perigee_deg":87.9684,"mean_anomaly_deg":272.1455,"bstar":4.2995e-5,"rev_number":19868,"period_min":95.437541268286,"perigee_km":538.85656057017,"apogee_km":540.62892135981,"semimajor_km":6917.879740965,"source":"CELESTRAK","updated_at":"2026-05-25T13:38:17.654306Z"}}}